Hourly Weather Roundup
Issued by NWS

Home | Current Version | Previous Version | Text Only | Print | Product List | Glossary On
Versions: 1 2 3 4 5 6 7 8 9 10 11 12 13 14 15 16 17 18 19 20 21 22 23 24
000
NZUS43 KILX 280010
HWRCRS

CRS HOURLY WEATHER ROUNDUP
NATIONAL WEATHER SERVICE, LINCOLN IL
700 PM CDT MON APR 27 2015


CITY           SKY/WX    TMP DP  RH WIND       PRES   REMARKS
CHAMPAIGN      CLEAR     57  35  43 NE10      30.07R
LAWRENCEVILLE  CLEAR     58  37  45 N15       30.04S
PEORIA         CLEAR     64  35  34 NE7       30.07S
SPRINGFIELD    CLEAR     62  37  39 NE14      30.06F
$$


CITY           SKY/WX    TMP DP  RH WIND       PRES   REMARKS
BLOOMINGTON    CLEAR     60  37  42 NE14      30.08R
DECATUR        CLEAR     59  37  44 NE13      30.07R
EFFINGHAM      CLEAR     58  33  37 NE8G16    30.06S
FLORA          CLEAR     60  38  44 N8G16     30.04R
GALESBURG      CLEAR     60  38  43 N10       30.08S
JACKSONVILLE   CLEAR     64  38  38 N8        30.06S
LACON          CLEAR     62  33  34 NE10      30.06S
LINCOLN        CLEAR     62  36  37 N12       30.05F
LITCHFIELD     PTCLDY    59  35  41 NE13      30.05R

CITY           SKY/WX    TMP DP  RH WIND       PRES   REMARKS
MACOMB         CLEAR     63  35  35 NE14      30.10R
MATTOON        CLEAR     56  35  45 NE16      30.07R
MOLINE         CLEAR     63  33  32 N7        30.08S
OLNEY          CLEAR     57  37  47 N16G23    30.04R
PARIS          CLEAR     54  37  53 NE7G16    30.08S
PONTIAC        CLEAR     58  40  50 NE18      30.09R
QUINCY         CLEAR     63  35  35 NE9       30.06F
RANTOUL        CLEAR     57  38  47 NE14      30.08R
ROBINSON       CLEAR     57  36  45 NE14G22   30.06S
TAYLORVILLE    CLEAR     59  36  41 NE13      30.06S
TERRE HAUTE    PTCLDY    54  37  52 N15G21    30.07R
$$


CITY           SKY/WX    TMP DP  RH WIND       PRES   REMARKS
BURLINGTON     CLEAR     63  37  38 NE8       30.07S
CHICAGO        PTCLDY    50  33  52 NE12      30.11S
DES MOINES     MOSUNNY   67  30  25 NE10      30.10S
EVANSVILLE     CLEAR     61  38  42 N12       30.01S
INDIANAPOLIS   MOCLDY    53  35  50 N14       30.04R
KANSAS CITY    PTSUNNY   63  36  36 NE9       30.05F
MILWAUKEE      PTCLDY    46  32  58 NE7       30.13F
ST LOUIS       MOCLDY    64  36  35 NE10      30.04S
$$




USA.gov is the U.S. government's official web portal to all federal, state and local government web resources and services.